Location: 5810 Zion Rd, Cleves, OH 45002, USA
(39.1922°N, 84.7113°W)
Time: 21:18:56
(UTC-05:00)

Courier 1B Rocket - Pass Details

Date: 09 December 2019
Orbit: 920 x 1202 km, 28.2° (Epoch: 20 January)

Event Time Altitude Azimuth Distance (km) Brightness Sun altitude
Rises 05:45:08 0° 209° (SSW) 3,861 8.0 -22.8°
Reaches altitude 10° 05:49:33 10° 184° (S) 2,839 7.5 -21.9°
Maximum altitude 05:52:43 14° 157° (SSE) 2,533 7.6 -21.3°
Drops below altitude 10° 05:55:48 10° 129° (SE) 2,748 8.3 -20.8°
Sets 05:59:55 0° 104° (ESE) 3,643 9.6 -20.0°
